Date String (YYYY-MM-DD hh:mm:ss) UTC,Instrument flags,absolute air pressure of the measurement (hPa),sample flow rate (lpm),inlet stack bypass flow (lpm),air temperature of the measurement (°C),ambient temperature measured by the external sensor (°C),aerosol sample conditioner tube jacket temperature (°C),OPC LED temperature (°C),internal box temperature (°C),relative humidity of the measurement (%),span deviation,mass concentration of particles derived from Lorenz-Mie calculation of OPC scattering (μg/m³),mass concentration of particles derived from Lorenz-Mie calculation of OPC scattering (μg/m³),mass concentration of particles derived from Lorenz-Mie calculation of OPC scattering (μg/m³)
DateTimeUTC,F1_M11,P_M11,Q1_M11,Q2_M11,T1_M11,T2_M11,T3_M11,T4_M11,T5_M11,U1_M11,ZSPAN_M11,X0_M11,X2_M11,X1_M11
2023-10-07 10:00:00,SystemResetWarning,0838.2,5.00,000.00,025.9,024.3,000.0,034.4,027.5,19.1,0001.6,0008.40,0005.33,0005.00
2023-10-07 10:01:00,SystemResetWarning,0838.2,5.00,000.00,025.9,024.3,000.0,034.4,027.5,19.0,0001.3,0008.42,0005.35,0005.00
2023-10-07 10:02:00,SystemResetWarning,0838.2,5.00,000.00,025.9,024.2,000.0,034.4,027.5,19.0,0001.0,0008.34,0005.31,0004.99
2023-10-07 10:03:00,SystemResetWarning,0838.2,5.00,000.00,025.9,024.2,000.0,034.4,027.5,19.0,0000.0,0008.93,0005.31,0004.98
2023-10-07 10:04:00,SystemResetWarning,0838.2,5.00,000.00,025.9,024.2,000.0,034.4,027.5,19.0,0000.0,0009.00,0005.32,0004.97
2023-10-07 10:05:00,SystemResetWarning,0838.2,5.00,000.00,025.8,024.2,000.0,034.3,027.5,19.1,0000.0,0008.84,0005.34,0004.98
2023-10-07 10:06:00,SystemResetWarning,0838.2,5.00,000.00,025.8,024.2,000.0,034.3,027.5,19.1,0000.0,0008.88,0005.36,0004.99
2023-10-07 10:07:00,SystemResetWarning,0838.2,5.00,000.00,025.8,024.2,000.0,034.3,027.5,19.1,0000.0,0008.89,0005.37,0005.01
2023-10-07 10:08:00,SystemResetWarning,0838.1,5.00,000.00,025.8,024.2,000.0,034.3,027.5,19.1,0000.0,0008.91,0005.39,0005.03
2023-10-07 10:09:00,SystemResetWarning,0838.2,5.00,000.00,025.8,024.2,000.0,034.3,027.5,19.2,0000.0,0009.08,0005.40,0005.04
2023-10-07 10:10:00,SystemResetWarning,0838.2,4.99,000.00,025.8,024.2,000.0,034.3,027.5,19.2,0000.0,0009.35,0005.46,0005.06
2023-10-07 10:11:00,SystemResetWarning,0838.2,4.98,000.00,025.8,024.2,000.0,034.3,027.5,19.2,0000.0,0009.50,0005.51,0005.07
2023-10-07 10:12:00,SystemResetWarning,0838.2,5.01,000.00,025.8,024.2,000.0,034.3,027.5,19.1,0000.0,0009.61,0005.53,0005.07
2023-10-07 10:13:00,SystemResetWarning,0838.2,5.00,000.00,025.8,024.2,000.0,034.3,027.5,19.0,0000.0,0009.65,0005.53,0005.06
2023-10-07 10:14:00,SystemResetWarning,0838.2,5.00,000.00,025.8,024.2,000.0,034.3,027.5,18.9,0000.0,0009.08,0005.51,0005.05
2023-10-07 10:15:00,SystemResetWarning,0838.2,5.01,000.00,025.8,024.2,000.0,034.3,027.5,18.8,0000.0,0008.94,0005.49,0005.03
2023-10-07 10:16:00,SystemResetWarning,0838.2,5.00,000.00,025.8,024.2,000.0,034.3,027.5,18.8,0000.0,0008.91,0005.46,0005.01
2023-10-07 10:17:00,SystemResetWarning,0838.2,4.99,000.00,025.8,024.2,000.0,034.3,027.5,18.8,0000.0,0008.91,0005.44,0005.01
2023-10-07 10:18:00,SystemResetWarning,0838.2,4.99,000.00,025.8,024.2,000.0,034.3,027.5,18.8,0000.0,0008.97,0005.45,0005.00
2023-10-07 10:19:00,SystemResetWarning,0838.2,4.99,000.00,025.8,024.2,000.0,034.3,027.5,18.8,0000.0,0009.07,0005.46,0005.01
2023-10-07 10:20:00,SystemResetWarning,0838.2,5.00,000.00,025.8,024.2,000.0,034.3,027.5,18.8,0000.0,0009.37,0005.50,0005.02
2023-10-07 10:21:00,SystemResetWarning,0838.2,5.00,000.00,025.8,024.2,000.0,034.3,027.5,18.8,0000.0,0009.67,0005.55,0005.06
2023-10-07 10:22:00,SystemResetWarning,0838.2,5.00,000.00,025.8,024.2,000.0,034.3,027.5,18.9,0000.0,0009.63,0005.56,0005.10
2023-10-07 10:23:00,SystemResetWarning,0838.2,5.00,000.00,025.8,024.2,000.0,034.3,027.5,18.9,0000.0,0009.93,0005.61,0005.15
2023-10-07 10:24:00,SystemResetWarning,0838.1,5.00,000.00,025.8,024.2,000.0,034.2,027.5,18.9,0000.0,0010.07,0005.68,0005.21
2023-10-07 10:25:00,SystemResetWarning,0838.2,5.00,000.00,025.8,024.2,000.0,034.2,027.5,18.9,0000.2,0010.22,0005.75,0005.28
2023-10-07 10:26:00,SystemResetWarning,0838.2,5.00,000.00,025.8,024.2,000.0,034.2,027.4,18.9,0000.0,0010.28,0005.83,0005.35
2023-10-07 10:27:00,SystemResetWarning,0838.2,5.00,000.00,025.8,024.2,000.0,034.2,027.5,18.9,0000.7,0010.46,0005.91,0005.41
2023-10-07 10:28:00,SystemResetWarning,0838.2,5.00,000.00,025.8,024.1,000.0,034.2,027.4,18.8,0002.0,0010.45,0005.94,0005.45
2023-10-07 10:29:00,SystemResetWarning,0838.2,5.00,000.00,025.8,024.1,000.0,034.2,027.4,18.9,0001.9,0010.49,0005.97,0005.47
2023-10-07 10:30:00,SystemResetWarning,0838.2,5.00,000.00,025.7,024.1,000.0,034.2,027.4,18.9,0001.7,0010.52,0006.02,0005.49
2023-10-07 10:31:00,SystemResetWarning,0838.1,5.00,000.00,025.7,024.1,000.0,034.2,027.4,18.9,0002.0,0010.13,0006.02,0005.51
2023-10-07 10:32:00,SystemResetWarning,0838.2,5.00,000.00,025.7,024.1,000.0,034.2,027.4,19.0,0002.3,0009.90,0006.00,0005.50
2023-10-07 10:33:00,SystemResetWarning,0838.2,5.00,000.00,025.7,024.1,000.0,034.2,027.3,19.2,0001.9,0010.22,0006.03,0005.50
2023-10-07 10:34:00,SystemResetWarning,0838.1,5.00,000.00,025.7,024.1,000.0,034.2,027.3,19.3,0000.4,0010.38,0006.01,0005.49
2023-10-07 10:35:00,SystemResetWarning,0838.2,5.00,000.00,025.7,024.1,000.0,034.2,027.3,19.3,0000.0,0010.21,0005.98,0005.48
2023-10-07 10:36:00,SystemResetWarning,0838.2,5.00,000.00,025.6,024.1,000.0,034.2,027.2,19.3,0001.1,0010.46,0005.99,0005.48
2023-10-07 10:37:00,SystemResetWarning,0838.2,5.00,000.00,025.6,024.0,000.0,034.2,027.2,19.5,0001.7,0010.81,0006.04,0005.49
2023-10-07 10:38:00,SystemResetWarning,0838.2,5.00,000.00,025.6,024.0,000.0,034.1,027.2,19.6,0002.1,0010.73,0006.02,0005.49
2023-10-07 10:39:00,SystemResetWarning,0838.2,5.00,000.00,025.6,023.9,000.0,034.1,027.1,19.6,0001.4,0010.91,0006.06,0005.51
2023-10-07 10:40:00,SystemResetWarning,0838.3,5.00,000.00,025.5,023.8,000.0,034.1,027.1,19.6,0001.2,0010.93,0006.08,0005.52
2023-10-07 10:41:00,SystemResetWarning,0838.3,5.00,000.00,025.5,023.8,000.0,034.1,027.1,19.6,0001.5,0011.04,0006.08,0005.52
2023-10-07 10:42:00,SystemResetWarning,0838.2,5.00,000.00,025.5,023.8,000.0,034.1,027.1,19.6,0001.0,0011.10,0006.09,0005.53
2023-10-07 10:43:00,SystemResetWarning,0838.2,5.00,000.00,025.5,023.8,000.0,034.0,027.1,19.6,0000.9,0011.45,0006.12,0005.53
2023-10-07 10:44:00,SystemResetWarning,0838.2,5.00,000.00,025.5,023.9,000.0,034.0,027.1,19.6,0000.7,0011.11,0006.08,0005.53
2023-10-07 10:45:00,SystemResetWarning,0838.2,5.00,000.00,025.5,023.9,000.0,034.0,027.1,19.6,0000.0,0010.57,0006.09,0005.54
2023-10-07 10:46:00,SystemResetWarning,0838.2,5.00,000.00,025.4,023.9,000.0,034.0,027.0,19.7,0000.0,0010.69,0006.13,0005.55
2023-10-07 10:47:00,SystemResetWarning,0838.2,5.00,000.00,025.4,023.9,000.0,034.0,027.0,19.7,0000.0,0010.46,0006.11,0005.54
2023-10-07 10:48:00,SystemResetWarning,0838.2,5.00,000.00,025.4,023.8,000.0,034.0,027.0,19.7,0000.0,0010.03,0006.05,0005.51
2023-10-07 10:49:00,SystemResetWarning,0838.2,5.00,000.00,025.4,023.8,000.0,034.0,027.0,19.7,0000.0,0010.38,0006.00,0005.46
2023-10-07 10:50:00,SystemResetWarning,0838.3,5.00,000.00,025.4,023.8,000.0,033.9,027.0,19.7,0000.0,0010.38,0005.92,0005.41
2023-10-07 10:51:00,SystemResetWarning,0838.3,5.00,000.00,025.4,023.8,000.0,033.9,027.0,19.7,0000.0,0010.24,0005.84,0005.36
2023-10-07 10:52:00,SystemResetWarning,0838.3,4.99,000.00,025.3,023.8,000.0,033.9,026.9,19.7,0000.0,0010.11,0005.81,0005.34
2023-10-07 10:53:00,SystemResetWarning,0838.3,4.99,000.00,025.3,023.8,000.0,033.9,027.0,19.7,0000.0,0010.00,0005.76,0005.30
2023-10-07 10:54:00,SystemResetWarning,0838.3,5.00,000.00,025.3,023.8,000.0,033.9,026.9,19.8,0000.0,0009.47,0005.69,0005.27
2023-10-07 10:55:00,SystemResetWarning,0838.2,5.01,000.00,025.3,023.7,000.0,033.9,026.9,19.8,0000.0,0009.46,0005.63,0005.22
2023-10-07 10:56:00,SystemResetWarning,0838.2,5.00,000.00,025.3,023.7,000.0,033.9,026.9,19.8,0000.0,0009.43,0005.59,0005.18
2023-10-07 10:57:00,SystemResetWarning,0838.2,5.01,000.00,025.3,023.7,000.0,033.8,026.9,19.9,0000.0,0009.27,0005.53,0005.15
2023-10-07 10:58:00,SystemResetWarning,0838.2,5.00,000.00,025.3,023.7,000.0,033.8,026.9,19.9,0000.0,0009.27,0005.53,0005.14
2023-10-07 10:59:00,SystemResetWarning,0838.2,4.99,000.00,025.3,023.7,000.0,033.8,026.9,19.9,0000.0,0009.34,0005.54,0005.15
